Hourly Data Report for October 02, 2017

All times are specified in Local Standard Time (LST). Add 1 hour to adjust for Daylight Saving Time where and when it is observed.

CORAL HARBOUR A
NUNAVUT

64°11'36.000" N
83°21'34.000" W
62.20 m
2301002
71915
YZS

Download Data

Hourly Data (October 2017)
Hourly Data Report for October 2, 2017
Temp Definition
°C
Dew Point Temp Definition
°C
Rel Hum Definition
%
Wind Dir Definition
10's deg

Wind Spd Definition
km/h
Visibility Definition
km
Stn Press Definition
kPa
Hmdx Definition


Wind Chill Definition


Weather Definition


TIME
00:00 Legend Double Dagger -5.7 -6.9 91 13 7 24.1 101.45   -9 LegendNANA
01:00 Legend Double Dagger -2.3 -3.3 93 16 17 24.1 101.36   -8 Mainly Clear
02:00 Legend Double Dagger -0.1 -0.8 95 18 20 24.1 101.29   -5 LegendNANA
03:00 Legend Double Dagger 0.8 0.0 94 20 30 24.1 101.19     LegendNANA
04:00 Legend Double Dagger 1.1 0.2 94 20 36 24.1 101.12     Cloudy
05:00 Legend Double Dagger 1.0 0.2 94 21 22 24.1 101.04     LegendNANA
06:00 Legend Double Dagger 1.1 0.2 94 20 25 19.3 100.92     Drizzle
07:00 Legend Double Dagger 1.3 0.4 94 20 31 19.3 100.84     Drizzle
08:00 Legend Double Dagger 1.4 0.5 94 21 29 19.3 100.77     Drizzle
09:00 Legend Double Dagger 1.5 0.5 93 20 27 12.9 100.68     Drizzle
10:00 Legend Double Dagger 1.6 0.6 93 20 29 19.3 100.55     Drizzle
11:00 Legend Double Dagger 1.6 1.1 96 20 33 9.7 100.40     Drizzle,Fog
12:00 Legend Double Dagger 1.7 1.2 96 20 37 9.7 100.24     Drizzle,Fog
13:00 Legend Double Dagger 1.7 1.4 98 20 31 1.2 100.13     Drizzle,Fog
14:00 Legend Double Dagger 1.8 1.6 99 19 31 0.4 100.00     Drizzle,Fog
15:00 Legend Double Dagger 1.8 1.6 99 20 30 0.4 99.85     Drizzle,Fog
16:00 Legend Double Dagger 1.9 1.7 99 19 31 0.2 99.67     Drizzle,Fog
17:00 Legend Double Dagger 1.9 1.8 99 19 31 0.8 99.52     Rain,Fog
18:00 Legend Double Dagger 1.8 1.7 99 20 26 0.4 99.34     Rain,Fog
19:00 Legend Double Dagger 1.6 1.5 99 21 17 0.4 99.24     Rain,Fog
20:00 Legend Double Dagger 0.6 0.4 99 26 9 12.9 99.16     Rain,Snow
21:00 Legend Double Dagger 0.2 -0.1 98 23 8 9.7 99.08     Snow
22:00 Legend Double Dagger 0.1 -0.4 96 35 24 2.4 99.06     Snow
23:00 Legend Double Dagger -0.8 -2.8 86 35 28 16.1 99.05   -7 Snow

Notes on Data Quality.

Legend

  • E = Estimated
  • M = Missing
  • NA = Not Available
  • ‡ = Partner data that is not subject to review by the National Climate Archives
Date modified: